Location: Newark
(28.9833°N, 10.0667°W)
Time: 20:19:42
(UTC+00:00)

N. Korean satellite - Visible Passes

Search period start: 06 December 2019 00:00
Search period end: 16 December 2019 00:00
Orbit: 456 x 506 km, 97.2° (Epoch: 06 December)

Date Brightness Start Highest point End Pass type
(mag) Time Alt. Az. Time Alt. Az. Time Alt. Az.
06 Dec 7.0 06:49:00 10° N 06:52:17 37° WNW 06:55:30 10° SW visible
06 Dec 10.0 18:52:41 10° WSW 18:54:28 13° W 18:56:16 10° WNW visible
07 Dec 6.5 06:23:24 10° NNE 06:26:56 83° ESE 06:30:22 10° S visible
07 Dec 8.9 18:25:43 10° SSW 18:28:57 29° W 18:32:13 10° NW visible
08 Dec 8.5 05:58:19 10° NNE 06:01:29 31° E 06:04:35 10° SSE visible
09 Dec 9.9 05:34:08 10° ENE 05:35:57 14° E 05:37:44 10° SE visible
10 Dec 6.6 06:40:33 10° N 06:43:56 50° WNW 06:47:17 10° SSW visible
10 Dec 9.8 18:43:38 10° SW 18:46:06 17° W 18:48:33 10° NW visible
11 Dec 7.0 06:15:06 10° NNE 06:18:33 60° E 06:21:56 10° S visible
11 Dec 8.4 18:17:08 10° SSW 18:20:36 38° W 18:24:04 10° NNW visible
12 Dec 9.0 05:50:13 10° NE 05:53:04 24° E 05:55:52 10° SSE visible
13 Dec 10.2 05:27:20 10° E 05:27:30 10° E 05:27:41 10° E visible
14 Dec 6.3 06:32:07 10° N 06:35:34 69° WNW 06:38:57 10° SSW visible
14 Dec 9.5 18:34:49 10° SSW 18:37:42 22° W 18:40:35 10° NW visible
15 Dec 7.7 06:06:49 10° NNE 06:10:08 43° E 06:13:24 10° S visible
15 Dec 7.7 18:08:38 10° S 18:12:13 50° W 18:15:49 10° NNW visible
